QTR429 ESSA-OTHH

Flight info

Callsign QTR429
Flight time N/A
Altitude 37000
Route BABAP P156 NEKLA DCT RASEL P156 MIRMA DCT ORZIK DCT BOKSU/N0473F360 DCT BULEP DCT XESNA DCT GERVI M857 VAXUR DCT KEKED/N0470F370 DCT MEGIK DCT NIGEV DCT DINEN/N0462F390 DCT ADORU UG80 EKI UN739 TUMER UT38 VESAR DCT NIKAS R785 RASLI P559 TRF R23 NEVOL N318 TAMRO T503 KSA M321 RESAL T533 RAPMA/N0481F290 Y214 ASPUS Y432 LADBO T142 LAEEB
Aircraft A343/H-SDE2E3FGHIJ4J5M1RWXY/LB1D1

Departure

Time 2026-05-07 15:02
Airport Stockholm-Arlanda Airport (ESSA)

Arrival

Time N/A
Airport Hamad International Airport (OTHH)
Time Latitude Longitude Altitude Speed Heading
2026-05-07 14:30 59.65394 17.93494 116 ft 0 kts 76°
2026-05-07 14:34 59.65396 17.93514 112 ft 0 kts 76°
2026-05-07 14:50 59.65394 17.93501 116 ft 4 kts 76°
2026-05-07 14:51 59.65394 17.93499 116 ft 4 kts 76°
2026-05-07 14:51 59.65392 17.93485 111 ft 4 kts 76°
2026-05-07 14:52 59.65387 17.93444 112 ft 4 kts 64°
2026-05-07 14:52 59.65371 17.93405 111 ft 4 kts 25°
2026-05-07 14:52 59.65349 17.93397 112 ft 1 kts 346°
2026-05-07 14:56 59.65360 17.93392 111 ft 4 kts 346°
2026-05-07 14:56 59.65410 17.93365 113 ft 9 kts 345°
2026-05-07 14:56 59.65485 17.93344 112 ft 12 kts 357°
2026-05-07 14:56 59.65520 17.93249 114 ft 9 kts 271°
2026-05-07 14:57 59.65507 17.93103 113 ft 12 kts 253°
2026-05-07 14:57 59.65478 17.92932 113 ft 13 kts 250°
2026-05-07 14:57 59.65444 17.92762 112 ft 13 kts 244°
2026-05-07 14:57 59.65434 17.92641 111 ft 5 kts 304°
2026-05-07 14:58 59.65497 17.92558 109 ft 16 kts 334°
2026-05-07 14:58 59.65621 17.92482 107 ft 20 kts 345°
2026-05-07 14:58 59.65748 17.92423 109 ft 18 kts 358°
2026-05-07 14:58 59.65875 17.92462 109 ft 20 kts 10°
2026-05-07 14:59 59.66011 17.92509 111 ft 19 kts
2026-05-07 14:59 59.66136 17.92554 112 ft 18 kts 11°
2026-05-07 14:59 59.66265 17.92601 120 ft 18 kts 10°
2026-05-07 14:59 59.66383 17.92639 122 ft 17 kts
2026-05-07 15:00 59.66490 17.92635 124 ft 16 kts 345°
2026-05-07 15:00 59.66589 17.92560 123 ft 15 kts 329°
2026-05-07 15:00 59.66621 17.92403 126 ft 9 kts 270°
2026-05-07 15:00 59.66591 17.92359 125 ft 6 kts 191°
2026-05-07 15:01 59.66588 17.92359 125 ft 0 kts 189°
2026-05-07 15:01 59.66537 17.92341 124 ft 25 kts 190°
2026-05-07 15:01 59.66174 17.92209 119 ft 79 kts 191°
2026-05-07 15:01 59.65473 17.91956 109 ft 124 kts 190°
2026-05-07 15:02 59.64521 17.91616 213 ft 149 kts 190°
2026-05-07 15:02 59.63509 17.91267 719 ft 146 kts 191°
2026-05-07 15:02 59.62489 17.90899 1170 ft 151 kts 188°
2026-05-07 15:02 59.61395 17.90571 1535 ft 169 kts 185°
2026-05-07 15:03 59.60152 17.90432 1858 ft 189 kts 181°
2026-05-07 15:03 59.58803 17.90329 2363 ft 198 kts 182°
2026-05-07 15:03 59.57363 17.90510 2731 ft 221 kts 169°
2026-05-07 15:03 59.55839 17.91626 3139 ft 244 kts 152°
2026-05-07 15:04 59.54389 17.93464 3741 ft 258 kts 144°
2026-05-07 15:04 59.52963 17.95688 4483 ft 265 kts 140°
2026-05-07 15:04 59.51560 17.98127 5211 ft 273 kts 138°
2026-05-07 15:04 59.50152 18.00674 6102 ft 276 kts 137°
2026-05-07 15:05 59.48729 18.03254 6867 ft 280 kts 137°
2026-05-07 15:05 59.47277 18.05859 7610 ft 285 kts 138°